Flag for U.S.A. Weather past 2 weeks in Chinle, Arizona, U.S.A.

Now
23 °F

Clear.


Feels Like: 23 °F
Forecast: 31 / 48 °F
Wind: No wind

Location: Window Rock Airport

Current Time: Feb 1, 2015 at 6:30:15 AM

Latest Report: Feb 1, 2015 at 5:53 AM


Visibility: 10 mi

Pressure: 30.04 "Hg

Humidity: 81%

Dew point: 18 °F

Location of ChinleLocation

Historic Weather in Chinle — Graph

°F

Chinle temperature yesterday

Maximum temperature yesterday: 43 °F (at 3:53 PM)
Minimum temperature yesterday: 34 °F (at 1:00 AM)
Average temperature yesterday: 37 °F

Past Weeks' High & Low Weather Summary

 TemperatureHumidityPressure
High59 °F (Jan 19, 12:53 PM)92% (Jan 31, 8:53 AM)30.43 "Hg (Jan 31, 8:53 AM)
Low8 °F (Jan 22, 7:53 AM)23% (Jan 28, 3:53 PM)29.79 "Hg (Jan 31, 1:53 PM)
Average35 °F66%30.17 "Hg
* Reported Jan 17 4:53 AM — Feb 1 4:53 AM, Chinle, Weather by CustomWeather, © 2014

Note: Actual official high and low records may vary slightly from our data, if they occured in-between our weather recording intervals... More about our weather records

Advertising

Chinle weather history for previous 24 hours

 ConditionsComfort  
Time TempWeatherWind HumidityBarometerVisibility
4:53 AM
Feb 1
25 °FClear.No wind85%30.01 "Hg10 mi
3:53 AM29 °FClear.No wind82%29.97 "Hg10 mi
2:53 AM31 °FClear.5 mph82%29.95 "Hg10 mi
1:53 AM31 °FClear.No wind82%29.94 "Hg10 mi
12:53 AM34 °FOvercast.No wind79%29.93 "Hg10 mi
11:53 PM
Jan 31
36 °FOvercast.9 mph75%29.93 "Hg10 mi
10:53 PM35 °FOvercast.9 mph82%29.94 "Hg10 mi
9:53 PM36 °FOvercast.14 mph75%29.92 "Hg10 mi
8:53 PM36 °FPassing clouds.9 mph79%29.90 "Hg10 mi
7:53 PM37 °FMostly cloudy.6 mph82%29.88 "Hg10 mi
6:53 PM39 °FOvercast.6 mph76%29.86 "Hg10 mi
5:53 PM39 °FOvercast.5 mph76%29.84 "Hg10 mi
4:53 PM41 °FMostly cloudy.6 mph76%29.81 "Hg10 mi
3:53 PM43 °FMostly cloudy.3 mph74%29.79 "Hg10 mi
2:53 PM42 °FMostly cloudy.No wind76%29.79 "Hg10 mi
1:53 PM42 °FMostly cloudy.No wind76%29.79 "Hg10 mi
12:53 PM39 °FOvercast.No wind82%29.81 "Hg10 mi
11:53 AM39 °FOvercast.No wind79%29.82 "Hg10 mi
10:53 AM36 °FLow clouds.No wind89%29.85 "Hg7 mi
9:53 AM35 °FFog.No wind88%29.84 "Hg4 mi
8:53 AM34 °FFog.No wind92%29.83 "Hg2 mi
7:53 AM34 °FFog.No wind88%29.83 "Hg5 mi
6:53 AM34 °FOvercast.No wind88%29.82 "Hg10 mi
Weather by CustomWeather, © 2014

See weather overviewHow to use our weather pages